[[{"header":{"parameterUnit":"m.s-1","parameterCategory":1,"la1":30.2991,"la2":30.254,"lo1":-89.0895,"lo2":-89.0444,"dy":0.0017,"dx":0.0017,"nx":28,"ny":28,"refTime":"2023-09-09T09:00:00:Z","depth":0,"parameterNumber":2,"parameterNumberName":"U-component_of_WINDS"},"data":[0,0,0,0,0,0,0,0,0,0,0,0,0,0,0,0,0,0,0,0,0,0,0,0,0,0,0,0,0,0,0,0,0,0,0,0,0,0,0,0,0,0,0,0,0,0,0,0,0,0,0,0,0,0,0,0,0,0,-0.1804,-0.1804,0,-0.1786,-0.1786,-0.1786,-0.1738,-0.1736,-0.1735,-0.1734,-0.1717,-0.1717,-0.1718,0,0,0,0,0,0,0,0,0,0,0,0,0,-0.1799,-0.1799,-0.1804,-0.1804,-0.1804,-0.1786,-0.1786,-0.1786,-0.1738,-0.1736,-0.1735,-0.1734,-0.1717,-0.1717,-0.1718,0,0,0,0,0,0,0,0,0,0,0,0,0,-0.1793,-0.1799,-0.1804,-0.1778,-0.1775,-0.1786,-0.1786,-0.1785,-0.1738,-0.1736,-0.1735,-0.1733,-0.1717,-0.1717,-0.1718,-0.1753,0,0,-0.172,-0.1721,0,0,0,0,0,0,0,0,-0.1793,-0.1793,-0.1782,-0.178,-0.1777,-0.1762,-0.1777,-0.1775,-0.1738,-0.1752,-0.1734,-0.1733,-0.1733,-0.1733,-0.1733,-0.1753,-0.1752,-0.172,-0.1721,-0.1721,-0.1721,0,0,0,0,0,0,0,-0.1794,-0.1794,-0.1797,-0.1782,-0.1779,-0.1767,-0.1765,-0.1777,-0.1752,-0.1751,-0.1747,-0.1746,-0.1732,-0.1732,-0.1732,-0.1752,-0.172,-0.1721,-0.1721,-0.1722,-0.18,-0.1802,0,0,0,0,0,0,-0.1798,-0.1795,-0.1798,-0.1796,-0.1781,-0.1769,-0.1766,-0.1769,-0.1751,-0.1747,-0.1747,-0.1744,-0.1732,-0.1731,-0.1731,-0.1772,-0.1721,-0.1722,-0.1722,-0.1799,-0.1801,-0.1803,0,0,0,0,0,0,-0.1798,-0.1799,-0.1798,-0.1795,-0.1794,-0.177,-0.1774,-0.1769,-0.1769,-0.1749,-0.1744,-0.1752,-0.173,-0.173,-0.1748,-0.1771,-0.1722,-0.1723,-0.1797,-0.1799,-0.1802,-0.1854,0,0,0,0,0,0,-0.1798,-0.1799,-0.1812,-0.1795,-0.1794,-0.1816,-0.1775,-0.177,-0.1771,-0.1766,-0.1752,-0.1748,-0.1729,-0.1748,-0.1749,-0.1771,-0.1723,-0.1795,-0.1798,-0.1801,-0.185,-0.1858,-0.1864,0,0,0,0,0,-0.1798,-0.1828,-0.1813,-0.1814,-0.181,-0.1817,-0.1816,-0.1794,-0.1773,-0.1786,-0.1772,-0.1749,-0.1768,-0.175,-0.1751,-0.1773,-0.1793,-0.1797,-0.1801,-0.1847,-0.1856,-0.1864,0,0,0,0,0,0,-0.1848,-0.1825,-0.1808,-0.1833,-0.1827,-0.1809,-0.1825,-0.1804,-0.1805,-0.18,-0.1772,-0.1769,-0.1792,-0.1784,-0.1765,-0.1807,-0.1777,-0.1781,-0.1811,-0.182,-0.1827,-0.1829,-0.1724,0,0,0,0,0,-0.1862,-0.1869,-0.1849,-0.1873,-0.1871,-0.1848,-0.1851,-0.1834,-0.1827,-0.1824,-0.1812,-0.1807,-0.1811,-0.1815,-0.1818,-0.1848,-0.1845,-0.1865,-0.1872,-0.1878,-0.1882,-0.1898,-0.1907,-0.1815,-0.1815,-0.1815,0,0,-0.1891,-0.1879,-0.1885,-0.1882,-0.1876,-0.1885,-0.1847,-0.1858,-0.1864,-0.1826,-0.1842,-0.1834,-0.1826,-0.185,-0.186,-0.1845,-0.1907,-0.1883,-0.1887,-0.1888,-0.1903,-0.1911,-0.1919,-0.1817,-0.1817,-0.1816,0,0,-0.1948,-0.1939,-0.1958,-0.1953,-0.1943,-0.1928,-0.1933,-0.1918,-0.191,-0.1926,-0.1898,-0.1905,-0.1914,-0.191,-0.1909,-0.1965,-0.1943,-0.1967,-0.2004,-0.202,-0.2028,-0.2034,-0.2055,-0.2062,-0.1971,-0.1971,-0.1971,0,-0.1985,-0.1997,-0.1971,-0.1984,-0.1984,-0.1949,-0.1969,-0.1965,-0.1957,-0.1958,-0.194,-0.1951,-0.1943,-0.1966,-0.198,-0.198,-0.1985,-0.1968,-0.2029,-0.2035,-0.204,-0.206,-0.2067,-0.1974,-0.1973,-0.1973,-0.1973,0,-0.2043,-0.2052,-0.2069,-0.2062,-0.2064,-0.208,-0.2057,-0.2062,-0.2045,-0.2032,-0.2049,-0.2038,-0.2039,-0.2043,-0.2027,-0.2065,-0.2055,-0.2034,-0.2003,-0.2052,-0.207,-0.2077,-0.1978,-0.1977,-0.1976,-0.1975,0,0,-0.2131,-0.211,-0.2117,-0.2114,-0.2101,-0.2108,-0.2123,-0.2123,-0.2128,-0.2124,-0.2136,-0.2144,-0.2124,-0.2123,-0.2106,-0.212,-0.2166,-0.2096,-0.2096,-0.211,-0.2208,-0.2225,-0.2234,-0.2151,-0.2152,-0.2153,-0.2209,0,-0.2186,-0.221,-0.2187,-0.2216,-0.2224,-0.2192,-0.2205,-0.2199,-0.2187,-0.2193,-0.218,-0.2186,-0.2159,-0.2158,-0.217,-0.2158,-0.2185,-0.2153,-0.2163,-0.2164,-0.2167,-0.2243,-0.2261,-0.2314,-0.2215,-0.2217,-0.2217,0,-0.2253,-0.2252,-0.2281,-0.2267,-0.2269,-0.2282,-0.228,-0.2286,-0.2279,-0.2269,-0.2268,-0.2247,-0.2261,-0.223,-0.225,-0.2229,-0.2231,-0.2226,-0.2227,-0.2228,-0.2194,-0.2247,-0.233,-0.2338,-0.2228,-0.2227,-0.2226,0,-0.2315,-0.2321,-0.2339,-0.2338,-0.2321,-0.2331,-0.2324,-0.2315,-0.2317,-0.2316,-0.2317,-0.2318,-0.2319,-0.232,-0.23,-0.2279,-0.2323,-0.229,-0.2316,-0.2317,-0.2327,-0.2327,-0.2413,-0.2328,-0.2328,-0.2327,-0.2327,0,-0.2379,-0.2398,-0.2367,-0.2379,-0.24,-0.2374,-0.2396,-0.2386,-0.2379,-0.2388,-0.236,-0.2369,-0.2341,-0.2348,-0.2332,-0.2352,-0.2352,-0.2345,-0.2341,-0.2348,-0.2349,-0.235,-0.2346,-0.233,-0.2329,-0.2329,-0.2328,0,-0.2452,-0.2432,-0.245,-0.2433,-0.243,-0.2446,-0.2432,-0.2442,-0.2428,-0.2441,-0.2442,-0.2421,-0.2428,-0.2407,-0.2411,-0.24,-0.2428,-0.2418,-0.2431,-0.2428,-0.2456,-0.2454,-0.2546,-0.2557,-0.2464,-0.2465,-0.2466,0,-0.2494,-0.2509,-0.2493,-0.2497,-0.2493,-0.25,-0.2501,-0.2476,-0.248,-0.2472,-0.2484,-0.2488,-0.249,-0.2502,-0.2488,-0.249,-0.248,-0.2512,-0.248,-0.2487,-0.2482,-0.2481,-0.2483,-0.2519,-0.252,-0.2521,-0.2522,0,-0.2572,-0.2561,-0.2565,-0.2565,-0.2568,-0.2567,-0.2564,-0.2569,-0.2543,-0.2548,-0.2554,-0.2556,-0.2559,-0.2564,-0.2564,-0.2557,-0.2536,-0.2532,-0.2538,-0.2546,-0.2554,-0.2551,-0.245,-0.253,-0.2529,-0.2529,-0.2528,-0.2528,-0.2631,-0.2643,-0.2634,-0.2639,-0.2634,-0.2632,-0.2641,-0.2629,-0.2633,-0.2634,-0.2619,-0.2629,-0.2622,-0.2619,-0.2615,-0.2622,-0.2608,-0.2617,-0.2619,-0.2622,-0.2627,-0.2552,-0.2622,-0.2622,-0.2622,-0.2621,-0.2621,0,-0.2708,-0.2701,-0.2705,-0.2702,-0.2707,-0.2685,-0.2681,-0.2686,-0.2695,-0.269,-0.2692,-0.27,-0.2705,-0.269,-0.2693,-0.2702,-0.2692,-0.2704,-0.2703,-0.2702,-0.2639,-0.2634,-0.2712,-0.2712,-0.2712,-0.2711,-0.2711,-0.2711,-0.2748,-0.2767,-0.2755,-0.2771,-0.2764,-0.2773,-0.2773,-0.2771,-0.2767,-0.2776,-0.278,-0.2771,-0.2762,-0.2764,-0.2768,-0.2763,-0.2766,-0.2781,-0.2774,-0.2715,-0.2707,-0.2698,-0.2693,-0.2782,-0.2782,-0.2836,-0.2836,-0.2837]},{"header":{"parameterUnit":"m.s-1","parameterCategory":1,"la1":30.2991,"la2":30.254,"lo1":-89.0895,"lo2":-89.0444,"dy":0.0017,"dx":0.0017,"nx":28,"ny":28,"refTime":"2023-09-09T09:00:00:Z","depth":0,"parameterNumber":3,"parameterNumberName":"V-component_of_WINDS"},"data":[0,0,0,0,0,0,0,0,0,0,0,0,0,0,0,0,0,0,0,0,0,0,0,0,0,0,0,0,0,0,0,0,0,0,0,0,0,0,0,0,0,0,0,0,0,0,0,0,0,0,0,0,0,0,0,0,0,0,-0.6086,-0.6086,0,-0.6058,-0.6058,-0.6058,-0.6054,-0.6054,-0.6054,-0.6054,-0.6026,-0.6025,-0.6024,0,0,0,0,0,0,0,0,0,0,0,0,0,-0.6136,-0.6135,-0.6086,-0.6086,-0.6085,-0.6059,-0.6058,-0.6058,-0.6054,-0.6054,-0.6054,-0.6054,-0.6026,-0.6025,-0.6023,0,0,0,0,0,0,0,0,0,0,0,0,0,-0.6112,-0.6135,-0.6086,-0.608,-0.6079,-0.6059,-0.6058,-0.6058,-0.6053,-0.6054,-0.6054,-0.6055,-0.6026,-0.6025,-0.6023,-0.6007,0,0,-0.6019,-0.6018,0,0,0,0,0,0,0,0,-0.6114,-0.611,-0.6081,-0.6081,-0.608,-0.606,-0.6065,-0.6041,-0.6053,-0.6063,-0.6054,-0.6055,-0.6037,-0.6034,-0.6028,-0.6005,-0.6004,-0.6019,-0.6018,-0.6017,-0.6017,0,0,0,0,0,0,0,-0.6115,-0.6111,-0.6075,-0.6081,-0.608,-0.6079,-0.6076,-0.6061,-0.6048,-0.6062,-0.6062,-0.6059,-0.6036,-0.603,-0.6028,-0.6004,-0.6019,-0.6017,-0.6016,-0.6016,-0.5968,-0.5968,0,0,0,0,0,0,-0.6118,-0.6113,-0.6076,-0.6074,-0.6098,-0.6078,-0.6075,-0.6066,-0.6048,-0.6046,-0.6059,-0.6059,-0.6032,-0.6029,-0.6027,-0.6007,-0.6017,-0.6016,-0.6015,-0.5968,-0.5968,-0.5968,0,0,0,0,0,0,-0.6119,-0.6115,-0.6077,-0.6094,-0.6089,-0.6077,-0.6067,-0.6065,-0.6059,-0.6045,-0.6043,-0.6054,-0.6032,-0.6029,-0.6012,-0.6006,-0.6015,-0.6014,-0.5969,-0.5968,-0.5968,-0.5968,0,0,0,0,0,0,-0.612,-0.6115,-0.6108,-0.6093,-0.6088,-0.6063,-0.6066,-0.6064,-0.6056,-0.6056,-0.6041,-0.6039,-0.6032,-0.6014,-0.6011,-0.6004,-0.6012,-0.5969,-0.5969,-0.5968,-0.5969,-0.5968,-0.5967,0,0,0,0,0,-0.6122,-0.6109,-0.6108,-0.6103,-0.6079,-0.6063,-0.6059,-0.6053,-0.6056,-0.6049,-0.6041,-0.6039,-0.6008,-0.6013,-0.6009,-0.6002,-0.597,-0.5969,-0.5968,-0.5969,-0.5968,-0.5967,0,0,0,0,0,0,-0.6122,-0.6107,-0.6105,-0.6087,-0.6076,-0.6062,-0.6053,-0.6051,-0.6039,-0.604,-0.6032,-0.6028,-0.6013,-0.6005,-0.6012,-0.5986,-0.5989,-0.5987,-0.5991,-0.599,-0.5989,-0.5991,-0.6011,0,0,0,0,0,-0.6121,-0.6108,-0.6095,-0.608,-0.6075,-0.6065,-0.6058,-0.6054,-0.6042,-0.6037,-0.6028,-0.6017,-0.6005,-0.5997,-0.5985,-0.5968,-0.5965,-0.5961,-0.596,-0.5959,-0.5958,-0.595,-0.5949,-0.5965,-0.5965,-0.5965,0,0,-0.6116,-0.6106,-0.6099,-0.608,-0.6071,-0.606,-0.6061,-0.6048,-0.604,-0.6035,-0.602,-0.6013,-0.6,-0.5984,-0.5976,-0.5977,-0.5953,-0.5958,-0.5958,-0.5957,-0.5949,-0.5948,-0.5946,-0.5964,-0.5964,-0.5964,0,0,-0.6102,-0.6093,-0.608,-0.6072,-0.6059,-0.6053,-0.605,-0.6036,-0.6032,-0.6016,-0.6013,-0.6003,-0.5981,-0.5973,-0.5966,-0.5952,-0.595,-0.5948,-0.5943,-0.5936,-0.5934,-0.5933,-0.5929,-0.5928,-0.5946,-0.5946,-0.5946,0,-0.6098,-0.608,-0.6074,-0.6061,-0.6054,-0.6051,-0.6038,-0.603,-0.6014,-0.6009,-0.6011,-0.5986,-0.5976,-0.5959,-0.5956,-0.595,-0.5947,-0.5949,-0.5935,-0.5934,-0.5933,-0.5929,-0.5927,-0.5946,-0.5946,-0.5946,-0.5946,0,-0.6077,-0.6065,-0.6056,-0.6042,-0.6033,-0.6021,-0.6013,-0.6005,-0.6002,-0.5996,-0.5981,-0.5971,-0.5957,-0.5953,-0.5949,-0.5935,-0.5937,-0.5937,-0.594,-0.5931,-0.5928,-0.5926,-0.5946,-0.5946,-0.5946,-0.5946,0,0,-0.6061,-0.6045,-0.6042,-0.6036,-0.6023,-0.6013,-0.6001,-0.5989,-0.5983,-0.5972,-0.5963,-0.5946,-0.5947,-0.5939,-0.5935,-0.5928,-0.5919,-0.5929,-0.5929,-0.5928,-0.5904,-0.5905,-0.5903,-0.5918,-0.5917,-0.5917,-0.5906,0,-0.6047,-0.6026,-0.6021,-0.6003,-0.5993,-0.599,-0.598,-0.5971,-0.5966,-0.5956,-0.595,-0.5939,-0.594,-0.5935,-0.5928,-0.5921,-0.5914,-0.5922,-0.5909,-0.5909,-0.5913,-0.5901,-0.5901,-0.5891,-0.5904,-0.5904,-0.5904,0,-0.6027,-0.6017,-0.5999,-0.5989,-0.5984,-0.5975,-0.5964,-0.5955,-0.5945,-0.5942,-0.5934,-0.5931,-0.5919,-0.5923,-0.5907,-0.5913,-0.5908,-0.5904,-0.5903,-0.5902,-0.5906,-0.59,-0.5887,-0.5886,-0.5901,-0.5901,-0.5901,0,-0.602,-0.6002,-0.5989,-0.5984,-0.5971,-0.5965,-0.596,-0.595,-0.5944,-0.5934,-0.593,-0.5919,-0.5913,-0.5905,-0.5899,-0.5902,-0.5885,-0.5887,-0.5882,-0.5882,-0.5879,-0.5879,-0.5865,-0.5874,-0.5874,-0.5874,-0.5874,0,-0.6005,-0.5994,-0.5986,-0.5978,-0.5966,-0.5961,-0.5949,-0.5943,-0.5935,-0.5927,-0.5924,-0.5916,-0.5908,-0.59,-0.5895,-0.5884,-0.5881,-0.5878,-0.5877,-0.5879,-0.5879,-0.5875,-0.5876,-0.5874,-0.5874,-0.5874,-0.5874,0,-0.5994,-0.5988,-0.5975,-0.5964,-0.5961,-0.5953,-0.5945,-0.5937,-0.5932,-0.5921,-0.5919,-0.591,-0.59,-0.5894,-0.588,-0.5877,-0.5865,-0.5864,-0.5869,-0.5868,-0.5864,-0.5865,-0.5848,-0.5846,-0.5855,-0.5855,-0.5855,0,-0.5986,-0.5978,-0.5967,-0.5961,-0.5956,-0.5947,-0.594,-0.5935,-0.5928,-0.5918,-0.5912,-0.5902,-0.5893,-0.5877,-0.587,-0.586,-0.5859,-0.5854,-0.5857,-0.586,-0.586,-0.5861,-0.5861,-0.5853,-0.5853,-0.5853,-0.5853,0,-0.5971,-0.5969,-0.596,-0.5951,-0.5944,-0.5936,-0.5928,-0.5924,-0.5917,-0.591,-0.59,-0.5893,-0.5881,-0.5871,-0.586,-0.5855,-0.5853,-0.5852,-0.585,-0.5852,-0.5856,-0.5855,-0.5868,-0.5852,-0.5852,-0.5853,-0.5853,-0.5853,-0.5962,-0.5956,-0.5948,-0.5938,-0.5932,-0.5925,-0.5919,-0.5913,-0.5905,-0.5894,-0.5891,-0.5881,-0.5873,-0.5859,-0.5853,-0.5845,-0.5846,-0.5843,-0.5843,-0.5843,-0.5843,-0.5857,-0.5843,-0.5843,-0.5843,-0.5843,-0.5843,0,-0.5949,-0.5944,-0.5936,-0.5925,-0.5918,-0.5918,-0.591,-0.5904,-0.5895,-0.5887,-0.588,-0.5869,-0.5859,-0.5852,-0.5843,-0.5838,-0.5837,-0.5836,-0.5836,-0.5835,-0.5842,-0.5845,-0.5837,-0.5837,-0.5837,-0.5837,-0.5837,-0.5837,-0.5941,-0.593,-0.5928,-0.5914,-0.5909,-0.59,-0.5895,-0.5889,-0.5883,-0.5871,-0.5864,-0.5859,-0.5852,-0.5843,-0.5834,-0.5832,-0.5829,-0.5829,-0.5827,-0.5834,-0.5834,-0.5835,-0.5838,-0.5828,-0.5828,-0.582,-0.582,-0.582]}]]